Weather History for Poteau, OK

Change the Weather History Date:

Sunday, September 2, 2012

  Actual Average (KFSM) Record (KFSM)
Temperature  
Mean Temperature 89 °F 79 °F  
Max Temperature 105 °F 91 °F 109 °F (2000)
Min Temperature 73 °F 68 °F 51 °F (1882)
Degree Days  
Heating Degree Days 0 0  
Month to date heating degree days 0  
Since 1 July heating degree days 0  
Cooling Degree Days 24 14  
Month to date cooling degree days 28  
Year to date cooling degree days 1723  
Growing Degree Days 39 (Base 50)    
Moisture  
Dew Point 73 °F    
Average Humidity 64    
Maximum Humidity 100    
Minimum Humidity 27    
Precipitation  
Precipitation 0.00 in 0.12 in 2.70 in (1974)
Month to date precipitation 0.23  
Year to date precipitation 29.59  
Sea Level Pressure  
Sea Level Pressure 29.91 in    
Wind  
Wind Speed 4 mph (SW)    
Max Wind Speed 12 mph    
Max Gust Speed 21 mph    
Visibility 10 miles    
Events      
T = Trace of Precipitation, MM = Missing Value Source: NWS Daily Summary

Daily Weather History Graph

Daily Weather History Graph

Search for Another Location

Airport:

Trip Planner

Search our weather history database for the weather conditions in past years. The results will help you decide how hot, cold, wet, or windy it might be!

Date:

Astronomy

Sep. 02, 2012 Rise Set
Actual Time 6:52 AM CDT 7:43 PM CDT
Civil Twilight 6:26 AM CDT 8:08 PM CDT
Nautical Twilight 5:55 AM CDT 8:39 PM CDT
Astronomical Twilight 5:24 AM CDT 9:10 PM CDT
Moon 8:39 PM CDT (9/2) 8:53 AM CDT (9/2)
Length of Visible Light 13h 42m
Length of Day
12h 50m
Waning Gibbous, 95% of the Moon is Illuminated
Sep 2
Waning Gibbous
Sep 8
Last Quarter
Sep 15
New
Sep 22
First Quarter
Sep 29
Full

Hourly Weather History & Observations

Time (CDT) Temp. Heat Index Dew Point Humidity Pressure Visibility Wind Dir Wind Speed Gust Speed Precip Events Conditions
12:15 AM 84.2 °F 90.9 °F 73.4 °F 70% 29.93 in 10.0 mi SSW 4.6 mph - N/A   Unknown
12:35 AM 84.2 °F 92.3 °F 75.2 °F 74% 29.93 in 10.0 mi SSW 3.5 mph - N/A   Unknown
12:55 AM 80.6 °F 85.4 °F 73.4 °F 79% 29.93 in 10.0 mi SSW 3.5 mph - N/A   Unknown
1:15 AM 80.6 °F 86.2 °F 75.2 °F 84% 29.93 in 10.0 mi SSW 3.5 mph - N/A   Unknown
1:35 AM 80.6 °F 87.1 °F 77.0 °F 89% 29.93 in 10.0 mi South 3.5 mph - N/A   Unknown
1:55 AM 78.8 °F - 75.2 °F 89% 29.93 in 10.0 mi SSW 3.5 mph - N/A   Unknown
2:15 AM 78.8 °F - 73.4 °F 83% 29.92 in 10.0 mi SSW 3.5 mph - N/A   Unknown
2:35 AM 80.6 °F 86.2 °F 75.2 °F 84% 29.92 in 10.0 mi Calm Calm - N/A   Unknown
2:55 AM 80.6 °F 86.2 °F 75.2 °F 84% 29.92 in 10.0 mi Calm Calm - N/A   Unknown
3:15 AM 78.8 °F - 77.0 °F 94% 29.93 in 10.0 mi Calm Calm - N/A   Unknown
3:35 AM 78.8 °F - 77.0 °F 94% 29.93 in 10.0 mi Calm Calm - N/A   Unknown
3:55 AM 78.8 °F - 77.0 °F 94% 29.93 in 10.0 mi Calm Calm - N/A   Unknown
4:15 AM 77.0 °F - 73.4 °F 89% 29.93 in 10.0 mi Calm Calm - N/A   Unknown
4:35 AM 77.0 °F - 75.2 °F 94% 29.93 in 10.0 mi Calm Calm - N/A   Unknown
4:55 AM 77.0 °F - 73.4 °F 89% 29.93 in 10.0 mi Calm Calm - N/A   Unknown
5:15 AM 75.2 °F - 73.4 °F 94% 29.93 in 10.0 mi Calm Calm - N/A   Unknown
5:35 AM 77.0 °F - 73.4 °F 89% 29.93 in 10.0 mi Calm Calm - N/A   Unknown
5:55 AM 77.0 °F - 73.4 °F 89% 29.93 in 10.0 mi Calm Calm - N/A   Unknown
6:15 AM 73.4 °F - 71.6 °F 94% 29.93 in 10.0 mi Calm Calm - N/A   Unknown
6:35 AM 75.2 °F - 73.4 °F 94% 29.94 in 10.0 mi Calm Calm - N/A   Unknown
6:55 AM 73.4 °F - 73.4 °F 100% 29.94 in 10.0 mi Calm Calm - N/A   Unknown
7:15 AM 73.4 °F - 71.6 °F 94% 29.95 in 10.0 mi Calm Calm - N/A   Unknown
7:35 AM 78.8 °F - 77.0 °F 94% 29.96 in 10.0 mi SSE 3.5 mph - N/A   Unknown
7:55 AM 80.6 °F 86.2 °F 75.2 °F 84% 29.96 in 10.0 mi South 3.5 mph - N/A   Unknown
8:15 AM 80.6 °F 86.2 °F 75.2 °F 84% 29.96 in 10.0 mi SSE 4.6 mph - N/A   Unknown
8:35 AM 84.2 °F 94.1 °F 77.0 °F 79% 29.96 in 10.0 mi South 5.8 mph - N/A   Unknown
8:55 AM 86.0 °F 96.9 °F 77.0 °F 74% 29.96 in 10.0 mi SSW 8.1 mph - N/A   Unknown
9:15 AM 87.8 °F 99.7 °F 77.0 °F 70% 29.97 in 10.0 mi SSW 6.9 mph - N/A   Unknown
9:35 AM 87.8 °F 99.7 °F 77.0 °F 70% 29.97 in 10.0 mi SSW 8.1 mph - N/A   Unknown
9:55 AM 91.4 °F 107.2 °F 78.8 °F 66% 29.97 in 10.0 mi SSW 9.2 mph - N/A   Unknown
10:15 AM 93.2 °F 110.2 °F 78.8 °F 63% 29.97 in 10.0 mi WSW 6.9 mph - N/A   Unknown
10:35 AM 95.0 °F 112.2 °F 78.8 °F 59% 29.97 in 10.0 mi SW 4.6 mph - N/A   Unknown
10:55 AM 95.0 °F 112.2 °F 78.8 °F 59% 29.96 in 10.0 mi WSW 9.2 mph 16.1 mph N/A   Unknown
11:15 AM 95.0 °F 109.7 °F 77.0 °F 56% 29.96 in 10.0 mi SW 10.4 mph - N/A   Unknown
11:35 AM 96.8 °F 112.2 °F 77.0 °F 53% 29.95 in 10.0 mi SW 8.1 mph - N/A   Unknown
11:55 AM 98.6 °F 117.2 °F 78.8 °F 53% 29.95 in 10.0 mi SW 8.1 mph - N/A   Unknown
12:15 PM 98.6 °F 114.4 °F 77.0 °F 50% 29.94 in 10.0 mi SW 8.1 mph 18.4 mph N/A   Unknown
12:35 PM 98.6 °F 111.7 °F 75.2 °F 47% 29.93 in 10.0 mi SW 6.9 mph - N/A   Unknown
12:55 PM 100.4 °F 113.6 °F 75.2 °F 44% 29.93 in 10.0 mi SW 3.5 mph - N/A   Unknown
1:15 PM 100.4 °F 113.6 °F 75.2 °F 44% 29.92 in 10.0 mi SW 6.9 mph - N/A   Unknown
1:35 PM 102.2 °F 114.4 °F 73.4 °F 40% 29.91 in 10.0 mi WSW 11.5 mph 16.1 mph N/A   Unknown
1:55 PM 102.2 °F 114.4 °F 73.4 °F 40% 29.90 in 10.0 mi SW 10.4 mph - N/A   Unknown
2:15 PM 104.0 °F 116.8 °F 73.4 °F 38% 29.90 in 10.0 mi SW 10.4 mph 16.1 mph N/A   Unknown
2:35 PM 104.0 °F 116.8 °F 73.4 °F 38% 29.89 in 10.0 mi WNW 8.1 mph 16.1 mph N/A   Unknown
2:55 PM 104.0 °F 114.0 °F 71.6 °F 35% 29.88 in 10.0 mi SW 5.8 mph 20.7 mph N/A   Unknown
3:15 PM 104.0 °F 114.0 °F 71.6 °F 35% 29.87 in 10.0 mi West 6.9 mph 19.6 mph N/A   Unknown
3:35 PM 104.0 °F 112.2 °F 69.8 °F 33% 29.86 in 10.0 mi West 9.2 mph - N/A   Unknown
3:55 PM 105.8 °F 114.2 °F 69.8 °F 31% 29.86 in 10.0 mi SW 9.2 mph - N/A   Unknown
4:15 PM 104.0 °F 110.5 °F 68.0 °F 31% 29.85 in 10.0 mi West 6.9 mph 17.3 mph N/A   Unknown
4:35 PM 105.8 °F 114.2 °F 69.8 °F 31% 29.85 in 10.0 mi WSW 6.9 mph - N/A   Unknown
4:55 PM 105.8 °F 113.2 °F 68.0 °F 30% 29.85 in 10.0 mi West 8.1 mph - N/A   Unknown
5:15 PM 105.8 °F 113.2 °F 68.0 °F 30% 29.85 in 10.0 mi West 8.1 mph 16.1 mph N/A   Unknown
5:35 PM 105.8 °F 111.5 °F 66.2 °F 28% 29.85 in 10.0 mi West 5.8 mph 10.4 mph N/A   Unknown
5:55 PM 104.0 °F 107.4 °F 64.4 °F 27% 29.85 in 10.0 mi WNW 8.1 mph - N/A   Unknown
6:15 PM 104.0 °F 107.4 °F 64.4 °F 27% 29.85 in 10.0 mi West 6.9 mph - N/A   Unknown
6:35 PM 104.0 °F 107.4 °F 64.4 °F 27% 29.85 in 10.0 mi WNW 5.8 mph - N/A   Unknown
6:55 PM 102.2 °F 105.5 °F 64.4 °F 29% 29.85 in 10.0 mi West 3.5 mph - N/A   Unknown
7:15 PM 100.4 °F 104.9 °F 66.2 °F 33% 29.85 in 10.0 mi Calm Calm - N/A   Unknown
7:35 PM 98.6 °F 107.7 °F 71.6 °F 42% 29.85 in 10.0 mi Calm Calm - N/A   Unknown
7:55 PM 95.0 °F 104.5 °F 73.4 °F 49% 29.85 in 10.0 mi SSW 3.5 mph - N/A   Unknown
8:15 PM 95.0 °F 103.2 °F 71.6 °F 47% 29.86 in 10.0 mi Calm Calm - N/A   Unknown
8:35 PM 89.6 °F 98.2 °F 73.4 °F 59% 29.86 in 10.0 mi Calm Calm - N/A   Unknown
8:55 PM 86.0 °F 93.4 °F 73.4 °F 66% 29.87 in 10.0 mi South 3.5 mph - N/A   Unknown
9:15 PM 86.0 °F 93.4 °F 73.4 °F 66% 29.87 in 10.0 mi South 3.5 mph - N/A   Unknown
9:35 PM 84.2 °F 90.9 °F 73.4 °F 70% 29.87 in 10.0 mi Calm Calm - N/A   Unknown
9:55 PM 84.2 °F 92.3 °F 75.2 °F 74% 29.87 in 10.0 mi Calm Calm - N/A   Unknown
10:15 PM 80.6 °F 85.4 °F 73.4 °F 79% 29.88 in 10.0 mi South 3.5 mph - N/A   Unknown
10:35 PM 82.4 °F 88.2 °F 73.4 °F 74% 29.88 in 10.0 mi Calm Calm - N/A   Unknown
10:55 PM 84.2 °F 92.3 °F 75.2 °F 74% 29.88 in 10.0 mi Calm Calm - N/A   Unknown
11:15 PM 84.2 °F 90.9 °F 73.4 °F 70% 29.88 in 10.0 mi SSW 3.5 mph - N/A   Unknown
11:55 PM 84.2 °F 90.9 °F 73.4 °F 70% 29.89 in 10.0 mi South 4.6 mph - N/A   Unknown